Regional Weather Roundup
Issued by NWS Northern Indiana

Home | Current Version | Previous Version | Text Only | Print | Product List | Glossary On
Versions: 1 2 3 4 5 6 7 8 9 10 11 12 13 14 15 16 17 18 19 20 21 22 23 24 25 26 27 28 29 30 31 32 33 34 35 36 37 38 39 40 41 42 43 44 45 46 47 48 49 50
615
ASUS43 KIWX 221510
RWRIWX

KIWX WEATHER ROUNDUP
NATIONAL WEATHER SERVICE NORTHERN INDIANA
1000 AM EST WED FEB 22 2017

NOTE: "FAIR" INDICATES FEW OR NO CLOUDS BELOW 12,000 FEET WITH NO
SIGNIFICANT WEATHER AND/OR OBSTRUCTIONS TO VISIBILITY.

* THESE STATIONS ARE NOT UNDER NWS QUALITY CONTROL. THEY ALSO MAY NOT
  REPORT WEATHER SUCH AS PRECIPITATION OR FOG.

INZ001>027-221600-
NORTHERN INDIANA

CITY           SKY/WX    TMP DP  RH WIND       PRES   REMARKS
GARY*          CLOUDY    55  54  94 S6        29.81F FOG
VALPARAISO     FOG       54  53  97 S10       29.82S VSB 1
MICHIGAN CITY* MOSUNNY   55  54  94 S9        29.81F FOG
LAPORTE*       CLOUDY    54  52  95 SW10      29.82F FOG
KNOX*          CLOUDY    54  48  82 S10       29.82F
SOUTH BEND     PTSUNNY   55  53  93 S14       29.82F FOG
ELKHART*       CLOUDY    54  52  94 S7        29.83F FOG
GOSHEN         CLOUDY    56  52  86 SW10      29.84F FOG
MONTICELLO*    FOG       53  51  95 S8        29.85S VSB 1/4
LOGANSPORT*    FOG       52  52 100 S10       29.87S VSB 1/4
ROCHESTER*     CLOUDY    55  55 100 S6        29.86S FOG
WARSAW*        CLOUDY    55  52  88 S7        29.85F FOG
ANGOLA*        CLOUDY    54  54 100 S7        29.84F
FORT WAYNE     CLOUDY    56  53  90 S7        29.86F FOG
HUNTINGTON*    CLOUDY    55  53  95 S3        29.86F FOG
PERU/GRISSOM   CLOUDY    55  55 100 SW8       29.85S FOG
MARION*        CLOUDY    55  55  97 S12       29.88F FOG

$$
INZ028>050-221600-
CENTRAL INDIANA

CITY           SKY/WX    TMP DP  RH WIND       PRES   REMARKS
LAFAYETTE      CLOUDY    53  53 100 SW7       29.86S FOG
KOKOMO*        CLOUDY    55  55 100 S8        29.87F FOG
MUNCIE*        CLOUDY    58  54  86 S8        29.88F FOG
INDIANAPOLIS   CLOUDY    56  54  93 SW9       29.89F FOG

$$
MIZ043>046-050>051-056>058-064>065-071>073-077>080-221600-
SOUTHWEST LOWER MICHIGAN

CITY           SKY/WX    TMP DP  RH WIND       PRES   REMARKS
BATTLE CREEK   CLOUDY    54  53  97 SW12      29.82F FOG
BENTON HARBOR  MOSUNNY   57  52  83 SW9       29.80S HAZE
COLDWATER*     CLOUDY    55  55 100 S6        29.83F FOG
HILLSDALE*     FOG       52  52 100 S7        29.84F VSB 1/2
HOLLAND        CLOUDY    54  52  93 S6        29.80S FOG
GRAND RAPIDS   CLOUDY    54  50  86 SW9       29.80S FOG
KALAMAZOO      PTSUNNY   55  51  86 S10       29.82F FOG
STURGIS*       CLOUDY    54  53  97 SW10      29.82F FOG
THREE RIVERS*  CLOUDY    53  53 100 S9        29.83F FOG

$$
OHZ001>008-015>018-024>025-221600-
NORTHWEST OHIO

CITY           SKY/WX    TMP DP  RH WIND       PRES   REMARKS
WAUSEON*       CLOUDY    55  54  94 SW9       29.86F FOG
DEFIANCE       CLOUDY    54  52  93 S6        29.87F FOG
FINDLAY        CLOUDY    58  53  84 SW10      29.87F HAZE
TOLEDO EXPRESS CLOUDY    57  55  93 SW8       29.86F FOG
TOLEDO METCALF PTSUNNY   58  55  90 SW12      29.87F FOG
LIMA           CLOUDY    57  55  93 S9        29.89F FOG

$$
AND FOR LAKE MICHIGAN COASTAL AND OPEN LAKE BUOY OBSERVATIONS

STATION/POSITION TEMP    WIND        PRES    VSBY  WAVE
                 AIR SEA DIR/SP/G                  HT/PER
                 (F)     (DEG/KT/KT) (MB)    (MI)  (FT/S)
CALUMET HARBOR    55     200/  9/ 12 1008.6R
MICHIGAN CITY     54     170/ 11/ 13   N/A
BURNS HARBOR      53     190/ 12/ 15 1009.8F

$$
&&




USA.gov is the U.S. government's official web portal to all federal, state and local government web resources and services.